TimeAKST,TemperatureF,Dew PointF,Humidity,Sea Level PressureIn,VisibilityMPH,Wind Direction,Wind SpeedMPH,Gust SpeedMPH,PrecipitationIn,Events,Conditions,WindDirDegrees,DateUTC
12:53 AM,37.9,28.0,68,29.28,10.0,ENE,4.6,-,N/A,,Overcast,70,2012-11-30 09:53:00
1:53 AM,37.9,26.1,62,29.27,10.0,East,8.1,-,N/A,,Overcast,80,2012-11-30 10:53:00
3:53 AM,36.0,28.0,73,29.26,10.0,SE,6.9,-,N/A,,Scattered Clouds,140,2012-11-30 12:53:00
4:53 AM,34.0,26.1,73,29.26,10.0,ENE,4.6,-,N/A,,Clear,70,2012-11-30 13:53:00
5:53 AM,35.1,25.0,67,29.25,10.0,East,10.4,18.4,N/A,,Clear,100,2012-11-30 14:53:00
6:53 AM,34.0,26.1,73,29.24,10.0,East,5.8,-,N/A,,Mostly Cloudy,90,2012-11-30 15:53:00
7:53 AM,36.0,27.0,70,29.24,10.0,Calm,Calm,-,N/A,,Mostly Cloudy,0,2012-11-30 16:53:00
8:53 AM,34.0,25.0,70,29.22,10.0,Variable,3.5,-,N/A,,Mostly Cloudy,0,2012-11-30 17:53:00
9:53 AM,35.1,27.0,72,29.21,10.0,ENE,3.5,-,N/A,,Overcast,70,2012-11-30 18:53:00
10:53 AM,36.0,25.0,64,29.21,10.0,Calm,Calm,-,N/A,,Scattered Clouds,0,2012-11-30 19:53:00
11:53 AM,37.0,25.0,62,29.20,10.0,ESE,8.1,-,N/A,,Mostly Cloudy,110,2012-11-30 20:53:00
12:53 PM,37.9,25.0,60,29.19,10.0,Variable,3.5,-,N/A,,Scattered Clouds,0,2012-11-30 21:53:00
1:53 PM,37.9,27.0,65,29.18,10.0,NW,5.8,-,N/A,,Clear,310,2012-11-30 22:53:00
2:53 PM,36.0,23.0,59,29.18,10.0,East,6.9,-,N/A,,Scattered Clouds,80,2012-11-30 23:53:00
3:53 PM,35.1,21.0,57,29.19,10.0,East,12.7,17.3,N/A,,Scattered Clouds,100,2012-12-01 00:53:00
4:53 PM,35.1,19.9,54,29.19,10.0,East,4.6,-,N/A,,Clear,90,2012-12-01 01:53:00
5:53 PM,34.0,21.0,59,29.19,10.0,ESE,6.9,-,N/A,,Clear,110,2012-12-01 02:53:00
6:53 PM,32.0,21.9,66,29.19,10.0,NE,3.5,-,N/A,,Clear,50,2012-12-01 03:53:00
7:53 PM,32.0,21.0,64,29.19,10.0,East,6.9,-,N/A,,Clear,80,2012-12-01 04:53:00
8:53 PM,32.0,19.0,59,29.20,10.0,East,6.9,-,N/A,,Clear,80,2012-12-01 05:53:00
9:53 PM,32.0,18.0,56,29.21,10.0,East,8.1,-,N/A,,Clear,90,2012-12-01 06:53:00
10:53 PM,32.0,18.0,56,29.22,10.0,ESE,8.1,-,N/A,,Clear,120,2012-12-01 07:53:00
11:53 PM,32.0,18.0,56,29.22,10.0,ESE,11.5,-,N/A,,Clear,110,2012-12-01 08:53:00